{"data":{"norad_id":67799,"epoch":"2026-09-19T22:25:25.247136Z","epoch_age_seconds":115275,"freshness":"FRESH","line1":"1 67799U 26032C   26262.93431999  .00013474  00000+0  41879-3 0  9996","line2":"2 67799  97.2865  89.2745 0001338  73.0449 287.0940 15.33455874 34725","mean_motion":15.33455874,"eccentricity":0.0001338,"inclination_deg":97.2865,"raan_deg":89.2745,"arg_perigee_deg":73.0449,"mean_anomaly_deg":287.094,"bstar":0.00041879,"rev_number":3472,"period_min":93.905538751746,"perigee_km":464.59514121734,"apogee_km":466.42650137432,"semimajor_km":6843.6478212958,"source":"CELESTRAK","updated_at":"2026-09-20T09:00:43.661968Z"}}